User: anonymous   Login
Location: Caltech
(34.1382°N, 118.1253°W)
Time: 08:21:27
(UTC-08:00)
Language:

ASTRO E2 - Orbit

View from above orbital plane
View from above orbital plane
View from above satellite
View from above satellite

Ground track
Ground track

The orbit data is extracted from the following two-line orbital elements,

1 28773U 05025A   15028.81715449  .00004266  00000-0  24258-3 0  4654
2 28773 031.3825 166.7985 0005151 273.3802 212.2538 15.11271512525326
Epoch (UTC): 28 January 2015 19:36:42
Eccentricity: 0.0005151
inclination: 31.3825°
perigee height: 529 km
apogee height: 536 km
right ascension of ascending node: 166.7985°
argument of perigee: 273.3802°
revolutions per day: 15.11271512
mean anomaly at epoch: 212.2538°
orbit number at epoch: 52532

The dashed part of the orbit path shows where the satellite is in the earth's shadow,  

DLR